EW6240 Anveville FR current weather conditions

sailwx.info

Wind from 291

Air temperature 15.6° C
Dewpoint 10.3° C

Last reported at 2020-Jul-06 18:54 UTC.
Time now 2020-Jul-06 19:24 UTC

Location: N 49°42' E 000°44'.
View on Google Maps.

See reports from other nearby stations

  
Tides and Currents Weather Stations Pressure Air Temp Water Temp Dewpoint Dewpoint Depression Visibility Wind Speed Wind Dir Waves Ship Positions
date/time (UTC)wind fromknots sea level pressurealtimeterstation pressurevisibilityair tempwater tempwave heightnotes
2020-Jul-06 19:09 292 15.0
2020-Jul-06 19:05 289 0 gusting 4 15.0
2020-Jul-06 19:00 290 15.6
2020-Jul-06 18:54 291 15.6
2020-Jul-06 18:50 292 5 gusting 6 15.6
2020-Jul-06 18:44 292 0 gusting 6 15.6
2020-Jul-06 18:40 293 3 gusting 6 15.6
2020-Jul-06 18:35 291 2 gusting 6 16.1
2020-Jul-06 18:30 290 1 gusting 5 16.1
2020-Jul-06 18:24 293 16.1
2020-Jul-06 18:20 293 1 gusting 6 16.1
2020-Jul-06 18:15 293 0 gusting 6 16.7
2020-Jul-06 18:09 293 4 gusting 6 16.7
2020-Jul-06 18:05 292 4 gusting 6 16.7
2020-Jul-06 18:00 296 4 gusting 8 16.7
2020-Jul-06 17:54 299 1 gusting 8 16.7
2020-Jul-06 17:50 303 16.7
2020-Jul-06 17:44 305 17.2
2020-Jul-06 17:40 296 4 gusting 9 17.2
2020-Jul-06 17:35 292 1 gusting 8 17.2
2020-Jul-06 17:30 297 5 gusting 8 17.8
2020-Jul-06 17:24 305 17.8
2020-Jul-06 17:20 297 6 gusting 9 17.8
2020-Jul-06 17:14 292 4 gusting 8 17.8
2020-Jul-06 17:09 301 4 gusting 7 17.8
2020-Jul-06 17:05 313 4 gusting 7 17.8
2020-Jul-06 17:00 306 3 gusting 7 17.8
2020-Jul-06 16:54 296 2 gusting 6 17.8
2020-Jul-06 16:50 296 5 gusting 7 18.3
2020-Jul-06 16:45 295 3 gusting 8 18.3
2020-Jul-06 16:40 292 3 gusting 8 18.3
2020-Jul-06 16:35 295 2 gusting 9 18.3
2020-Jul-06 16:30 298 5 gusting 9 18.3
2020-Jul-06 16:25 301 3 gusting 9 18.3
2020-Jul-06 16:19 299 3 gusting 7 18.3
2020-Jul-06 16:15 305 6 gusting 11 18.3
2020-Jul-06 16:10 303 0 gusting 11 18.3
2020-Jul-06 16:05 308 4 gusting 11 18.3
2020-Jul-06 16:00 305 8 gusting 10 18.3
2020-Jul-06 15:54 293 6 gusting 11 18.3
2020-Jul-06 15:50 298 5 gusting 11 18.3
2020-Jul-06 15:45 308 4 gusting 14 17.8
2020-Jul-06 15:39 324 7 gusting 15 17.8
2020-Jul-06 15:34 338 6 gusting 15 17.2
2020-Jul-06 15:29 329 8 gusting 15 17.8
2020-Jul-06 15:25 313 6 gusting 11 17.2
2020-Jul-06 15:19 309 0 gusting 11 17.8
2020-Jul-06 15:15 303 3 gusting 14 17.8
2020-Jul-06 15:10 300 1 gusting 14 17.8
2020-Jul-06 15:05 294 4 gusting 7 17.8
2020-Jul-06 15:00 295 6 gusting 7 18.3
2020-Jul-06 14:55 304 5 gusting 8 18.9
2020-Jul-06 14:50 299 3 gusting 8 18.9
2020-Jul-06 14:45 310 3 gusting 14 18.3
2020-Jul-06 14:40 317 5 gusting 14 18.3
2020-Jul-06 14:35 301 5 gusting 9 18.3
2020-Jul-06 14:29 293 3 gusting 9 18.3
2020-Jul-06 14:24 293 4 gusting 9 17.8
2020-Jul-06 14:19 296 4 gusting 13 17.8
2020-Jul-06 14:14 308 4 gusting 13 17.8
2020-Jul-06 14:09 318 13 gusting 13 17.8
2020-Jul-06 14:05 301 2 gusting 10 17.8
2020-Jul-06 14:00 301 2 gusting 10 17.8
2020-Jul-06 13:55 313 8 gusting 12 18.3
2020-Jul-06 13:50 310 5 gusting 12 18.3
2020-Jul-06 13:45 296 3 gusting 10 18.9
2020-Jul-06 13:40 289 6 gusting 10 18.3
2020-Jul-06 13:35 297 7 gusting 12 18.3
2020-Jul-06 13:30 299 2 gusting 12 18.3
2020-Jul-06 13:24 292 2 gusting 10 18.3
2020-Jul-06 13:19 297 6 gusting 13 17.8
2020-Jul-06 13:15 298 4 gusting 13 18.3
2020-Jul-06 13:09 295 8 gusting 11 18.3
2020-Jul-06 13:05 294 3 gusting 13 18.3
2020-Jul-06 13:00 293 4 gusting 13 18.3
2020-Jul-06 12:55 300 8 gusting 16 17.8
2020-Jul-06 12:50 309 2 gusting 16 17.8
2020-Jul-06 12:44 301 6 gusting 10 18.3
2020-Jul-06 12:39 294 2 gusting 15 18.3
2020-Jul-06 12:34 292 6 gusting 15 18.9
2020-Jul-06 12:29 290 3 gusting 13 18.9
2020-Jul-06 12:25 290 8 gusting 13 18.9
2020-Jul-06 12:20 299 8 gusting 13 18.9
2020-Jul-06 12:15 304 5 gusting 10 18.9
2020-Jul-06 12:10 313 6 gusting 15 18.9
2020-Jul-06 12:05 313 9 gusting 15 18.9
2020-Jul-06 12:00 297 5 gusting 13 18.9
2020-Jul-06 11:55 293 11 gusting 13 19.4
2020-Jul-06 11:49 291 5 gusting 13 19.4
2020-Jul-06 11:45 293 13 gusting 13 19.4
2020-Jul-06 11:40 292 2 gusting 11 18.9
2020-Jul-06 11:35 293 7 gusting 11 18.3
2020-Jul-06 11:30 294 5 gusting 11 18.3
2020-Jul-06 11:25 295 6 gusting 12 18.3
2020-Jul-06 11:20 294 4 gusting 12 18.3
2020-Jul-06 11:15 291 4 gusting 12 18.9
2020-Jul-06 11:10 292 3 gusting 12 18.3
2020-Jul-06 11:05 291 5 gusting 11 18.3
2020-Jul-06 11:00 294 8 gusting 11 18.3
2020-Jul-06 10:55 299 1 gusting 10 17.8
2020-Jul-06 10:49 296 4 gusting 11 17.8
2020-Jul-06 10:45 294 1 gusting 14 17.8
2020-Jul-06 10:40 295 7 gusting 14 17.8
2020-Jul-06 10:35 297 6 gusting 12 18.3
2020-Jul-06 10:30 295 9 gusting 10 17.8
2020-Jul-06 10:25 293 3 gusting 11 17.8
2020-Jul-06 10:20 292 3 gusting 13 17.2
2020-Jul-06 10:15 294 6 gusting 13 17.8
2020-Jul-06 10:10 295 5 gusting 15 17.2
2020-Jul-06 10:05 294 5 gusting 15 17.8
2020-Jul-06 10:00 292 4 gusting 11 17.2
2020-Jul-06 09:55 300 5 gusting 15 17.2
2020-Jul-06 09:50 302 6 gusting 15 17.8
2020-Jul-06 09:45 294 8 gusting 12 18.3
2020-Jul-06 09:40 295 6 gusting 12 18.3
2020-Jul-06 09:35 295 7 gusting 13 17.8
2020-Jul-06 09:30 295 8 gusting 15 17.8
2020-Jul-06 09:25 297 4 gusting 15 17.2
2020-Jul-06 09:20 298 6 gusting 15 17.2
2020-Jul-06 09:15 295 5 gusting 15 17.2
2020-Jul-06 09:10 291 3 gusting 13 17.2
2020-Jul-06 09:05 293 6 gusting 13 17.2
2020-Jul-06 09:00 294 6 gusting 13 16.7
2020-Jul-06 08:55 294 6 gusting 13 17.2
2020-Jul-06 08:50 297 3 gusting 13 16.7
2020-Jul-06 08:45 294 6 gusting 13 16.7
2020-Jul-06 08:40 292 2 gusting 11 17.2
2020-Jul-06 08:35 295 3 gusting 11 17.2
2020-Jul-06 08:30 294 5 gusting 12 17.2
2020-Jul-06 08:25 292 7 gusting 12 17.2
2020-Jul-06 08:20 294 5 gusting 9 17.8
2020-Jul-06 08:15 300 17.2
2020-Jul-06 08:10 299 6 gusting 12 17.2
2020-Jul-06 08:05 303 7 gusting 12 18.3
2020-Jul-06 08:00 305 6 gusting 9 18.3
2020-Jul-06 07:55 294 5 gusting 11 17.2
2020-Jul-06 07:50 292 5 gusting 13 16.1
2020-Jul-06 07:45 298 5 gusting 13 16.1
2020-Jul-06 07:40 301 9 gusting 10 16.7
2020-Jul-06 07:35 295 2 gusting 9 16.7
2020-Jul-06 07:30 296 5 gusting 9 16.1
2020-Jul-06 07:25 293 16.1
2020-Jul-06 07:20 292 3 gusting 10 16.7
2020-Jul-06 07:15 292 9 gusting 11 17.2
2020-Jul-06 07:10 295 5 gusting 11 17.2
2020-Jul-06 07:05 298 3 gusting 8 16.7
2020-Jul-06 07:00 293 3 gusting 9 16.1
2020-Jul-06 06:55 291 4 gusting 10 15.6
2020-Jul-06 06:49 291 3 gusting 10 15.6
2020-Jul-06 06:45 294 5 gusting 6 15.0
2020-Jul-06 06:40 294 15.0
2020-Jul-06 06:35 296 6 gusting 6 15.0
2020-Jul-06 06:30 294 3 gusting 8 15.0
2020-Jul-06 06:25 293 1 gusting 8 15.0
2020-Jul-06 06:20 293 1 gusting 6 15.0
2020-Jul-06 06:15 292 3 gusting 6 14.4
2020-Jul-06 06:09 289 14.4
2020-Jul-06 06:05 286 4 gusting 6 14.4
2020-Jul-06 06:00 294 4 gusting 4 13.9
2020-Jul-06 05:55 296 0 gusting 3 13.9
2020-Jul-06 05:50 293 1 gusting 2 13.9
2020-Jul-06 05:44 292 13.3
2020-Jul-06 05:40 294 13.3
2020-Jul-06 05:35 294 12.8
2020-Jul-06 05:30 292 12.8
2020-Jul-06 05:25 294 0 gusting 3 12.8
2020-Jul-06 05:20 293 12.2
2020-Jul-06 05:15 295 12.2
2020-Jul-06 05:10 296 12.2
2020-Jul-06 05:05 297 3 gusting 3 12.2
2020-Jul-06 05:00 292 11.7
2020-Jul-06 04:54 292 11.7
2020-Jul-06 04:50 286 11.7
2020-Jul-06 04:45 292 11.7
2020-Jul-06 04:40 294 11.7
2020-Jul-06 04:35 294 1 gusting 5 11.7
2020-Jul-06 04:30 291 0 gusting 6 11.7
2020-Jul-06 04:25 284 11.7
2020-Jul-06 04:19 290 3 gusting 4 11.7
2020-Jul-06 04:15 291 1 gusting 4 11.7
2020-Jul-06 04:10 288 11.7
2020-Jul-06 04:05 289 3 gusting 5 11.7
2020-Jul-06 04:00 294 11.7
2020-Jul-06 03:55 302 2 gusting 4 11.7
2020-Jul-06 03:50 300 3 gusting 4 11.7
2020-Jul-06 03:45 292 1 gusting 4 11.7
2020-Jul-06 03:40 292 11.7
2020-Jul-06 03:35 281 11.7
2020-Jul-06 03:30 286 11.7
2020-Jul-06 03:25 291 1 gusting 5 11.7
2020-Jul-06 03:19 285 3 gusting 4 11.7
2020-Jul-06 03:14 286 1 gusting 2 11.7
2020-Jul-06 03:10 289 0 gusting 2 11.7
2020-Jul-06 03:05 290 12.2
2020-Jul-06 03:00 290 12.2
2020-Jul-06 02:54 287 12.2
2020-Jul-06 02:50 281 0 gusting 1 12.2
2020-Jul-06 02:45 287 12.2
2020-Jul-06 02:39 297 0 gusting 3 12.2
2020-Jul-06 02:34 293 1 gusting 4 12.2
2020-Jul-06 02:30 293 3 gusting 6 12.2
2020-Jul-06 02:25 292 1 gusting 6 12.2
2020-Jul-06 02:20 292 12.2
2020-Jul-06 02:15 290 3 gusting 5 12.2
2020-Jul-06 02:10 292 12.2
2020-Jul-06 02:05 293 2 gusting 4 12.2
2020-Jul-06 02:00 287 0 gusting 4 12.8
2020-Jul-06 01:55 294 2 gusting 4 12.8
2020-Jul-06 01:50 301 2 gusting 5 12.8
2020-Jul-06 01:45 292 12.8
2020-Jul-06 01:39 291 1 gusting 4 12.8
2020-Jul-06 01:35 295 0 gusting 6 12.2
2020-Jul-06 01:29 298 12.2
2020-Jul-06 01:24 315 12.2
2020-Jul-06 01:20 320 1 gusting 4 12.2
2020-Jul-06 01:15 318 1 gusting 4 12.2
2020-Jul-06 01:10 306 12.2
2020-Jul-06 01:05 289 0 gusting 4 12.2
2020-Jul-06 01:00 297 12.2
2020-Jul-06 00:55 294 3 gusting 6 12.2
2020-Jul-06 00:50 290 1 gusting 6 12.2
2020-Jul-06 00:45 295 12.8
2020-Jul-06 00:40 300 1 gusting 4 12.8
2020-Jul-06 00:34 295 12.8
2020-Jul-06 00:30 290 3 gusting 9 12.8
2020-Jul-06 00:24 290 1 gusting 7 12.8
2020-Jul-06 00:20 294 12.8
2020-Jul-06 00:15 292 0 gusting 6 12.8
2020-Jul-06 00:10 303 6 gusting 6 12.8
2020-Jul-06 00:05 303 1 gusting 8 12.8
2020-Jul-06 00:00 293 1 gusting 8 12.8
2020-Jul-05 23:55 296 2 gusting 6 12.8
2020-Jul-05 23:50 299 12.8
2020-Jul-05 23:45 288 0 gusting 6 12.8
2020-Jul-05 23:40 291 6 gusting 6 12.8
2020-Jul-05 23:35 296 2 gusting 6 12.8
2020-Jul-05 23:30 298 0 gusting 6 12.8
2020-Jul-05 23:25 293 3 gusting 5 12.8
2020-Jul-05 23:20 288 1 gusting 6 12.8
2020-Jul-05 23:15 296 3 gusting 6 12.8
2020-Jul-05 23:10 300 12.8
2020-Jul-05 23:04 295 12.8
2020-Jul-05 23:00 293 0 gusting 6 12.8
2020-Jul-05 22:55 295 2 gusting 6 12.8
2020-Jul-05 22:50 299 12.8
2020-Jul-05 22:45 292 12.8
2020-Jul-05 22:40 292 2 gusting 6 12.8
2020-Jul-05 22:35 292 2 gusting 6 12.8
2020-Jul-05 22:30 288 3 gusting 7 12.8
2020-Jul-05 22:25 287 12.8
2020-Jul-05 22:20 293 3 gusting 5 12.8
2020-Jul-05 22:15 288 2 gusting 5 12.8
2020-Jul-05 22:10 284 0 gusting 4 12.8
2020-Jul-05 22:05 293 1 gusting 4 12.8
2020-Jul-05 21:55 310 1 gusting 5 12.8
2020-Jul-05 21:50 299 12.8
2020-Jul-05 21:45 292 12.8
2020-Jul-05 21:40 292 12.8
2020-Jul-05 21:35 292 12.8
2020-Jul-05 21:30 292 12.8
2020-Jul-05 21:25 298 12.8
2020-Jul-05 21:20 300 12.8
2020-Jul-05 21:15 306 1 gusting 4 12.8
2020-Jul-05 21:10 304 2 gusting 4 12.8
2020-Jul-05 21:05 307 1 gusting 4 13.3
2020-Jul-05 21:00 307 0 gusting 4 13.3
2020-Jul-05 20:55 284 13.3
2020-Jul-05 20:50 293 1 gusting 6 13.3
2020-Jul-05 20:45 295 2 gusting 5 13.3
2020-Jul-05 20:39 291 13.3
2020-Jul-05 20:35 296 2 gusting 6 13.3
2020-Jul-05 20:30 297 4 gusting 6 13.3
2020-Jul-05 20:25 299 6 gusting 6 13.9
2020-Jul-05 20:20 295 13.9
2020-Jul-05 20:15 297 13.9
2020-Jul-05 20:10 300 4 gusting 7 14.4
2020-Jul-05 20:05 300 4 gusting 6 14.4
2020-Jul-05 20:00 299 1 gusting 4 14.4
2020-Jul-05 19:55 307 1 gusting 5 14.4
2020-Jul-05 19:50 305 0 gusting 6 14.4
2020-Jul-05 19:45 300 1 gusting 8 14.4
2020-Jul-05 19:40 300 1 gusting 8 14.4
2020-Jul-05 19:35 294 1 gusting 6 14.4
2020-Jul-05 19:30 301 0 gusting 6 15.0
2020-Jul-05 19:25 312 15.0
2020-Jul-05 19:20 318 15.0
2020-Jul-05 19:15 309 6 gusting 6 15.6
2020-Jul-05 19:10 296 1 gusting 7 15.6
2020-Jul-05 19:05 298 6 gusting 11 15.6
2020-Jul-05 19:00 302 2 gusting 11 15.6
2020-Jul-05 18:55 298 3 gusting 6 16.1
2020-Jul-05 18:50 293 0 gusting 9 16.1
2020-Jul-05 18:45 294 1 gusting 13 16.1
2020-Jul-05 18:40 290 3 gusting 13 16.1
2020-Jul-05 18:35 295 3 gusting 9 16.1
2020-Jul-05 18:30 296 1 gusting 9 16.1
2020-Jul-05 18:25 290 6 gusting 11 16.1
2020-Jul-05 18:20 293 5 gusting 11 16.7
2020-Jul-05 18:15 293 5 gusting 10 16.7
2020-Jul-05 18:10 295 6 gusting 10 16.7
2020-Jul-05 18:05 295 3 gusting 12 16.7
2020-Jul-05 18:00 291 4 gusting 14 16.7
2020-Jul-05 17:55 290 4 gusting 14 16.7
2020-Jul-05 17:50 289 8 gusting 14 17.2
2020-Jul-05 17:45 291 3 gusting 9 17.8
2020-Jul-05 17:40 290 1 gusting 9 17.8
2020-Jul-05 17:35 289 7 gusting 11 17.8
2020-Jul-05 17:30 295 3 gusting 14 17.8
2020-Jul-05 17:25 300 6 gusting 14 17.8
2020-Jul-05 17:20 298 5 gusting 11 17.8
2020-Jul-05 17:15 296 5 gusting 13 17.8
2020-Jul-05 17:10 297 3 gusting 13 17.8
2020-Jul-05 17:05 291 3 gusting 10 17.8
2020-Jul-05 17:00 291 1 gusting 8 17.8
2020-Jul-05 16:55 294 2 gusting 8 17.8
2020-Jul-05 16:50 302 2 gusting 10 17.8
2020-Jul-05 16:45 303 6 gusting 11 18.3
2020-Jul-05 16:40 291 2 gusting 11 18.3
2020-Jul-05 16:35 288 2 gusting 7 18.3
2020-Jul-05 16:30 291 6 gusting 10 18.3
2020-Jul-05 16:25 294 3 gusting 10 18.3
2020-Jul-05 16:20 294 10 gusting 10 18.3
2020-Jul-05 16:15 293 4 gusting 10 17.8
2020-Jul-05 16:10 292 6 gusting 10 18.3
2020-Jul-05 16:05 294 5 gusting 11 18.3
2020-Jul-05 16:00 293 10 gusting 11 18.3
2020-Jul-05 15:55 218 5 gusting 8 18.3
2020-Jul-05 15:50 241 2 gusting 8 18.3
2020-Jul-05 15:45 249 3 gusting 9 18.3
2020-Jul-05 15:40 289 5 gusting 9 18.3
2020-Jul-05 15:35 291 2 gusting 11 17.8
2020-Jul-05 15:30 292 1 gusting 11 17.8
2020-Jul-05 15:25 292 17.8
2020-Jul-05 15:20 294 5 gusting 10 17.8
2020-Jul-05 15:15 301 6 gusting 11 18.3
2020-Jul-05 15:10 314 3 gusting 11 18.9
2020-Jul-05 15:05 308 2 gusting 10 18.9
2020-Jul-05 14:55 291 3 gusting 9 18.9
2020-Jul-05 14:50 295 5 gusting 11 18.9
2020-Jul-05 14:45 295 2 gusting 11 18.9
2020-Jul-05 14:40 290 8 gusting 11 18.9
2020-Jul-05 14:35 282 2 gusting 10 18.9
2020-Jul-05 14:30 288 10 gusting 15 18.9
2020-Jul-05 14:25 293 0 gusting 15 18.9
2020-Jul-05 14:20 286 5 gusting 7 18.9
2020-Jul-05 14:15 285 1 gusting 7 18.3
2020-Jul-05 14:10 332 2 gusting 7 18.3
2020-Jul-05 14:05 319 1 gusting 7 17.8
2020-Jul-05 14:00 298 1 gusting 12 17.2
2020-Jul-05 13:55 293 5 gusting 12 17.8
2020-Jul-05 13:50 291 1 gusting 11 17.8
2020-Jul-05 13:45 292 3 gusting 11 18.3
2020-Jul-05 13:40 294 3 gusting 8 18.3
2020-Jul-05 13:35 292 6 gusting 7 18.9
2020-Jul-05 13:30 291 0 gusting 9 18.9
2020-Jul-05 13:25 294 6 gusting 9 18.9
2020-Jul-05 13:20 280 4 gusting 11 19.4
2020-Jul-05 13:15 139 4 gusting 11 20.0
2020-Jul-05 13:10 047 7 gusting 8 20.0
2020-Jul-05 13:05 123 1 gusting 8 20.0
2020-Jul-05 13:00 122 5 gusting 8 20.0
2020-Jul-05 12:55 101 5 gusting 6 19.4
2020-Jul-05 12:50 304 4 gusting 8 19.4
2020-Jul-05 12:45 289 8 gusting 8 19.4
2020-Jul-05 12:40 143 1 gusting 6 20.0
2020-Jul-05 12:35 121 3 gusting 6 20.6
2020-Jul-05 12:30 113 2 gusting 6 20.0
2020-Jul-05 12:25 158 3 gusting 8 20.0
2020-Jul-05 12:20 147 4 gusting 8 20.0
2020-Jul-05 12:15 135 3 gusting 6 20.6
2020-Jul-05 12:10 166 20.6
2020-Jul-05 12:05 155 3 gusting 8 20.0
2020-Jul-05 12:00 110 5 gusting 6 20.0
2020-Jul-05 11:55 097 6 gusting 6 20.0
2020-Jul-05 11:50 121 3 gusting 6 20.0
2020-Jul-05 11:45 126 3 gusting 7 20.0
2020-Jul-05 11:40 125 3 gusting 7 19.4
2020-Jul-05 11:35 128 3 gusting 6 19.4
2020-Jul-05 11:30 132 5 gusting 8 19.4
2020-Jul-05 11:25 133 2 gusting 9 19.4
2020-Jul-05 11:20 131 3 gusting 9 19.4
2020-Jul-05 11:15 114 2 gusting 6 19.4
2020-Jul-05 11:10 122 1 gusting 6 19.4
2020-Jul-05 11:05 144 4 gusting 6 19.4
2020-Jul-05 11:00 146 1 gusting 11 20.0
2020-Jul-05 10:55 141 4 gusting 11 20.0
2020-Jul-05 10:50 141 5 gusting 13 20.0
2020-Jul-05 10:45 139 1 gusting 13 20.0
2020-Jul-05 10:40 135 5 gusting 13 20.0
2020-Jul-05 10:35 151 1 gusting 11 20.0
2020-Jul-05 10:30 152 11 gusting 11 20.6
2020-Jul-05 10:25 147 3 gusting 8 20.6
2020-Jul-05 10:20 142 7 gusting 8 20.0
2020-Jul-05 10:15 126 3 gusting 7 20.0
2020-Jul-05 10:10 131 3 gusting 7 19.4
2020-Jul-05 10:05 128 5 gusting 9 19.4
2020-Jul-05 10:00 127 3 gusting 9 19.4
2020-Jul-05 09:55 139 4 gusting 9 19.4
2020-Jul-05 09:50 134 6 gusting 9 19.4
2020-Jul-05 09:45 132 7 gusting 7 19.4
2020-Jul-05 09:40 150 1 gusting 7 19.4
2020-Jul-05 09:35 153 3 gusting 7 20.0
2020-Jul-05 09:30 146 7 gusting 7 20.0
2020-Jul-05 09:25 143 3 gusting 7 20.0
2020-Jul-05 09:20 142 1 gusting 8 20.6
2020-Jul-05 09:15 132 1 gusting 9 20.6
2020-Jul-05 09:10 134 1 gusting 9 20.6
2020-Jul-05 09:05 139 4 gusting 15 20.0
2020-Jul-05 09:00 133 3 gusting 15 20.0
2020-Jul-05 08:55 129 5 gusting 9 20.6
2020-Jul-05 08:50 127 4 gusting 6 20.0
2020-Jul-05 08:45 146 5 gusting 8 20.0
2020-Jul-05 08:40 152 3 gusting 14 19.4
2020-Jul-05 08:35 153 3 gusting 14 19.4
2020-Jul-05 08:30 136 1 gusting 6 18.9
2020-Jul-05 08:25 137 3 gusting 9 18.9
2020-Jul-05 08:20 152 4 gusting 19 18.9
2020-Jul-05 08:15 146 8 gusting 19 18.9
2020-Jul-05 08:10 126 3 gusting 9 18.9
2020-Jul-05 08:05 129 4 gusting 8 18.9
2020-Jul-05 08:00 114 3 gusting 6 18.3
2020-Jul-05 07:55 109 4 gusting 6 18.3
2020-Jul-05 07:50 127 1 gusting 6 18.3
2020-Jul-05 07:45 124 4 gusting 6 17.8
2020-Jul-05 07:40 122 3 gusting 10 17.8
2020-Jul-05 07:35 132 1 gusting 10 17.8
2020-Jul-05 07:30 136 2 gusting 6 17.8
2020-Jul-05 07:25 143 3 gusting 6 17.8
2020-Jul-05 07:20 139 4 gusting 6 17.8
2020-Jul-05 07:15 131 1 gusting 6 17.8
2020-Jul-05 07:10 131 3 gusting 6 17.8
2020-Jul-05 07:05 153 5 gusting 9 17.8
2020-Jul-05 07:00 164 4 gusting 9 17.8
2020-Jul-05 06:55 146 5 gusting 12 17.8
2020-Jul-05 06:50 147 17.2
2020-Jul-05 06:45 142 5 gusting 16 17.2
2020-Jul-05 06:40 130 2 gusting 8 17.2
2020-Jul-05 06:35 144 2 gusting 7 17.2
2020-Jul-05 06:30 135 4 gusting 6 17.2
2020-Jul-05 06:25 118 6 gusting 8 17.2
2020-Jul-05 06:20 137 2 gusting 10 16.7
2020-Jul-05 06:15 146 5 gusting 10 16.7
2020-Jul-05 06:10 111 10 gusting 10 16.7
2020-Jul-05 06:05 084 0 gusting 6 16.7
2020-Jul-05 06:00 100 4 gusting 6 16.7
2020-Jul-05 05:55 108 3 gusting 6 16.7
2020-Jul-05 05:50 124 1 gusting 6 16.7
2020-Jul-05 05:45 112 3 gusting 6 16.7
2020-Jul-05 05:40 113 3 gusting 6 16.7
2020-Jul-05 05:35 084 1 gusting 11 16.7
2020-Jul-05 05:30 095 1 gusting 11 16.7
2020-Jul-05 05:25 110 2 gusting 6 16.7
2020-Jul-05 05:20 090 5 gusting 6 16.7
2020-Jul-05 05:15 118 2 gusting 7 16.7
2020-Jul-05 05:10 122 5 gusting 7 16.7
2020-Jul-05 05:05 125 16.7
2020-Jul-05 05:00 115 3 gusting 6 16.7
2020-Jul-05 04:55 083 1 gusting 6 16.7
2020-Jul-05 04:50 107 1 gusting 6 16.7
2020-Jul-05 04:45 131 0 gusting 6 16.7
2020-Jul-05 04:40 130 1 gusting 6 16.7
2020-Jul-05 04:35 147 2 gusting 9 16.7
2020-Jul-05 04:30 158 5 gusting 9 16.7
2020-Jul-05 04:25 168 0 gusting 7 16.7
2020-Jul-05 04:20 175 4 gusting 8 16.7
2020-Jul-05 04:15 167 6 gusting 8 16.7
2020-Jul-05 04:10 157 6 gusting 8 16.7
2020-Jul-05 04:05 170 1 gusting 11 16.7
2020-Jul-05 04:00 165 2 gusting 11 16.7
2020-Jul-05 03:55 160 2 gusting 9 17.2
2020-Jul-05 03:50 153 3 gusting 6 16.7
2020-Jul-05 03:45 143 2 gusting 6 17.2
2020-Jul-05 03:40 146 1 gusting 9 17.2
2020-Jul-05 03:35 149 3 gusting 11 16.7
2020-Jul-05 03:30 152 1 gusting 11 16.7
2020-Jul-05 03:25 141 3 gusting 9 16.7
2020-Jul-05 03:20 129 2 gusting 9 16.7
2020-Jul-05 03:15 135 2 gusting 6 16.7
2020-Jul-05 03:10 156 3 gusting 6 16.7
2020-Jul-05 03:05 174 2 gusting 7 16.7
2020-Jul-05 03:00 167 16.7
2020-Jul-05 02:55 144 2 gusting 7 16.7
2020-Jul-05 02:50 115 1 gusting 7 16.7
2020-Jul-05 02:45 139 2 gusting 6 16.7
2020-Jul-05 02:40 148 3 gusting 7 16.7
2020-Jul-05 02:35 107 3 gusting 7 16.7
2020-Jul-05 02:30 108 3 gusting 7 16.7
2020-Jul-05 02:25 134 2 gusting 7 16.7
2020-Jul-05 02:20 106 5 gusting 6 16.7
2020-Jul-05 02:15 074 1 gusting 6 16.7
2020-Jul-05 02:10 107 1 gusting 8 16.7
2020-Jul-05 02:05 132 4 gusting 8 16.7
2020-Jul-05 02:00 154 6 gusting 7 16.7
2020-Jul-05 01:55 145 5 gusting 7 16.7
2020-Jul-05 01:50 122 4 gusting 7 16.7
2020-Jul-05 01:45 125 3 gusting 10 16.7
2020-Jul-05 01:40 129 5 gusting 10 16.7
2020-Jul-05 01:35 147 2 gusting 9 16.7
2020-Jul-05 01:30 148 6 gusting 10 16.7
2020-Jul-05 01:25 143 5 gusting 10 16.7
2020-Jul-05 01:20 136 1 gusting 10 16.7
2020-Jul-05 01:10 120 2 gusting 6 16.7
2020-Jul-05 01:05 134 16.7
2020-Jul-05 01:00 112 5 gusting 10 16.7
2020-Jul-05 00:55 118 2 gusting 10 16.7
2020-Jul-05 00:50 127 4 gusting 8 16.7
2020-Jul-05 00:45 130 1 gusting 13 16.7
2020-Jul-05 00:40 127 3 gusting 13 16.7
2020-Jul-05 00:35 120 1 gusting 6 16.7
2020-Jul-05 00:30 112 16.7
2020-Jul-05 00:25 099 4 gusting 5 16.7
2020-Jul-05 00:20 105 16.7
2020-Jul-05 00:15 109 3 gusting 6 16.7
2020-Jul-05 00:10 101 3 gusting 6 16.7
2020-Jul-05 00:05 093 3 gusting 7 16.7
2020-Jul-05 00:00 083 2 gusting 7 16.7
2020-Jul-04 23:50 141 4 gusting 5 16.7
2020-Jul-04 23:45 152 0 gusting 5 16.7
2020-Jul-04 23:40 092 3 gusting 4 16.7
2020-Jul-04 23:35 066 2 gusting 4 16.7
2020-Jul-04 23:30 111 1 gusting 4 16.7
2020-Jul-04 23:25 111 3 gusting 4 16.7
2020-Jul-04 23:20 094 2 gusting 5 16.7
2020-Jul-04 23:15 126 4 gusting 6 16.7
2020-Jul-04 23:10 127 1 gusting 6 16.7
2020-Jul-04 23:05 122 3 gusting 6 16.7
2020-Jul-04 23:00 127 3 gusting 6 16.7
2020-Jul-04 22:55 123 2 gusting 6 16.7
2020-Jul-04 22:50 123 3 gusting 8 16.7
2020-Jul-04 22:45 125 5 gusting 8 16.7
2020-Jul-04 22:40 122 2 gusting 5 16.7
2020-Jul-04 22:35 081 1 gusting 5 16.7
2020-Jul-04 22:30 093 3 gusting 6 16.7
2020-Jul-04 22:25 087 1 gusting 6 16.7
2020-Jul-04 22:20 070 1 gusting 5 16.7
2020-Jul-04 22:15 101 1 gusting 5 16.7
2020-Jul-04 22:10 116 1 gusting 9 16.7
2020-Jul-04 22:05 082 3 gusting 9 16.7
2020-Jul-04 21:55 111 1 gusting 5 16.7
2020-Jul-04 21:50 078 3 gusting 5 16.7
2020-Jul-04 21:45 058 0 gusting 5 16.7
2020-Jul-04 21:40 083 2 gusting 5 16.7
2020-Jul-04 21:35 108 2 gusting 4 16.7
2020-Jul-04 21:30 111 0 gusting 3 16.7
2020-Jul-04 21:25 069 0 gusting 4 16.7
2020-Jul-04 21:20 313 16.7
2020-Jul-04 21:15 296 5 gusting 6 16.7
2020-Jul-04 21:10 319 0 gusting 6 16.7
2020-Jul-04 21:05 300 2 gusting 3 17.2
2020-Jul-04 21:00 289 1 gusting 5 17.2
2020-Jul-04 20:55 294 1 gusting 5 17.2
2020-Jul-04 20:50 291 2 gusting 6 17.2
2020-Jul-04 20:45 300 0 gusting 6 17.2
2020-Jul-04 20:40 224 1 gusting 4 17.2
2020-Jul-04 20:35 134 1 gusting 2 17.2
2020-Jul-04 20:30 324 1 gusting 6 17.2
2020-Jul-04 20:25 288 17.2
2020-Jul-04 20:20 291 2 gusting 3 17.2
2020-Jul-04 20:15 276 17.8
2020-Jul-04 20:10 293 17.8
2020-Jul-04 20:05 300 3 gusting 4 17.8
2020-Jul-04 20:00 291 1 gusting 4 17.8
2020-Jul-04 19:55 306 2 gusting 4 17.8
2020-Jul-04 19:50 311 1 gusting 6 17.8
2020-Jul-04 19:45 275 1 gusting 6 18.3
2020-Jul-04 19:40 279 2 gusting 4 18.3
2020-Jul-04 19:35 287 18.3
2020-Jul-04 19:30 295 2 gusting 6 18.3
2020-Jul-04 19:25 147 0 gusting 7 18.3
2020-Jul-04 19:20 133 3 gusting 7 18.3
2020-Jul-04 19:15 136 0 gusting 6 18.9
2020-Jul-04 19:10 154 18.9
2020-Jul-04 19:05 168 1 gusting 9 18.9
2020-Jul-04 19:00 168 2 gusting 9 18.9